Location: Crescent
(42.8242°N, 73.7329°W)
Time: 03:09:48
(UTC+00:00)

Transit 4A - Pass Details

Date: 18 February 2026
Orbit: 863 x 978 km, 66.8° (Epoch: 13 March)

Event Time Altitude Azimuth Distance (km) Brightness Sun altitude
Rises 10:53:13 0° 273° (W) 3,483 - -10.7°
Reaches altitude 10° 10:57:05 10° 298° (WNW) 2,570 - -10.0°
Exits shadow 10:57:07 10° 298° (WNW) 2,565 9.6 -9.9°
Maximum altitude 11:00:05 14° 329° (NNW) 2,315 9.6 -9.4°
Drops below altitude 10° 11:03:08 10° 359° (N) 2,614 10.2 -8.9°
Sets 11:07:09 0° 24° (NNE) 3,587 11.2 -8.1°
